GW3945 Weather Reports


Display with metric or nautical units.
time (UTC)temp
F
wind
direction
speed
MPH
gust
MPH
rain 1hr
in
rain 24hr
in
rain mn
in
humidity
%
barometer
mb
20260902044210 75 232 0.0 0.0 0.00 0.00 0.00 89 1016.3
20260902043704 75 231 0.0 0.0 0.00 0.00 0.00 90 1016.4
20260902043200 75 231 0.0 0.0 0.00 0.00 0.00 90 1016.5
20260902042659 76 231 0.0 0.0 0.00 0.00 0.00 90 1016.3
20260902042154 76 231 0.0 0.0 0.00 0.00 0.00 90 1016.5
20260902041654 76 231 0.0 0.0 0.00 0.00 0.00 90 1016.5
20260902041149 76 231 0.0 0.0 0.00 0.00 0.00 90 1016.6
20260902040648 76 231 0.0 0.0 0.00 0.00 0.00 90 1016.5
20260902040144 76 231 0.0 0.0 0.00 0.00 0.00 91 1016.5
20260902035642 76 231 0.0 0.0 0.00 0.00 0.00 90 1016.5
20260902035137 76 231 0.0 0.0 0.00 0.00 0.00 90 1016.5
20260902034636 76 231 0.0 0.0 0.00 0.00 0.00 90 1016.6
20260902034131 77 231 0.0 0.0 0.00 0.00 0.00 89 1016.7
20260902033630 77 231 0.0 0.0 0.00 0.00 0.00 90 1016.5
20260902033125 77 231 0.0 0.0 0.00 0.00 0.00 90 1016.6
20260902032623 77 231 0.0 0.0 0.00 0.00 0.00 90 1016.6
20260902032118 77 231 0.0 0.0 0.00 0.00 0.00 90 1016.6
20260902031613 78 231 0.0 0.0 0.00 0.00 0.00 88 1016.7
20260902031109 78 231 0.0 0.0 0.00 0.00 0.00 88 1016.7
20260902030604 78 232 0.0 0.0 0.00 0.00 0.00 86 1016.6
20260902030104 78 229 0.0 0.0 0.00 0.00 0.00 88 1016.5
20260902025604 78 229 0.0 0.0 0.00 0.00 0.00 87 1016.5
20260902025059 78 229 0.0 0.0 0.00 0.00 0.00 85 1016.7
20260902024555 78 229 0.0 0.0 0.00 0.00 0.00 85 1016.7
20260902024054 78 229 0.0 0.0 0.00 0.00 0.00 86 1016.7
20260902023550 78 229 0.0 0.0 0.00 0.00 0.00 87 1016.7
20260902023045 78 229 0.0 0.0 0.00 0.00 0.00 88 1016.6
20260902022539 78 229 0.0 0.0 0.00 0.00 0.00 87 1016.6
20260902022035 78 229 0.0 0.0 0.00 0.00 0.00 88 1016.6
20260902021530 78 229 0.0 0.0 0.00 0.00 0.00 87 1016.3
20260902021025 79 229 0.0 0.0 0.00 0.00 0.00 87 1016.7
20260902020520 79 229 0.0 0.0 0.00 0.00 0.00 87 1016.4
20260902020016 79 227 0.0 0.0 0.00 0.00 0.00 87 1016.4
20260902015512 79 227 0.0 0.0 0.00 0.00 0.00 86 1016.5
20260902015007 79 227 0.0 0.0 0.00 0.00 0.00 86 1016.4
20260902014503 80 227 0.0 0.0 0.00 0.00 0.00 86 1016.4
20260902013959 80 227 0.0 0.0 0.00 0.00 0.00 85 1016.3
20260902013453 80 227 0.0 0.0 0.00 0.00 0.00 85 1016.3
20260902012948 80 227 0.0 0.0 0.00 0.00 0.00 85 1016.0
20260902012444 81 227 0.0 0.0 0.00 0.00 0.00 84 1016.2
20260902011939 81 227 0.0 0.0 0.00 0.00 0.00 83 1016.1
20260902011435 81 227 0.0 0.0 0.00 0.00 0.00 82 1016.2
20260902010934 81 227 0.0 0.0 0.00 0.00 0.00 82 1016.2
20260902010429 82 227 0.0 0.0 0.00 0.00 0.00 82 1016.1
20260902005928 82 226 0.0 0.0 0.00 0.00 0.00 81 1015.9
20260902005427 82 226 0.0 0.0 0.00 0.00 0.00 81 1015.9
20260902004924 82 226 0.0 0.0 0.00 0.00 0.00 81 1015.8
20260902004423 83 226 0.0 0.0 0.00 0.00 0.00 80 1015.9
20260902003919 83 226 0.0 0.0 0.00 0.00 0.00 81 1016.0
20260902003413 83 229 0.0 0.0 0.00 0.00 0.00 81 1016.0
20260902002908 84 229 0.0 0.0 0.00 0.00 0.00 79 1015.9
20260902002403 84 221 0.0 0.0 0.00 0.00 0.00 77 1016.0
20260902001857 85 221 0.0 0.0 0.00 0.00 0.00 77 1015.9
20260902001352 86 221 0.0 0.0 0.00 0.00 0.00 76 1015.9
20260902000847 86 221 0.0 0.0 0.00 0.00 0.00 73 1015.8
20260902000344 86 221 0.0 0.0 0.00 0.00 0.00 70 1015.7
20260901235837 87 221 0.0 0.0 0.00 0.00 0.00 68 1016.0
20260901235337 87 221 0.0 0.0 0.00 0.00 0.00 67 1015.8
20260901234832 87 221 0.0 0.0 0.00 0.00 0.00 66 1015.9
20260901234326 88 221 0.0 0.0 0.00 0.00 0.00 65 1016.0
20260901233822 88 221 0.0 0.0 0.00 0.00 0.00 63 1016.1
20260901233317 88 221 0.0 0.0 0.00 0.00 0.00 61 1016.1
20260901232813 89 221 0.0 0.0 0.00 0.00 0.00 60 1016.1
20260901232307 89 221 0.0 0.0 0.00 0.00 0.00 60 1016.1
20260901231804 89 221 0.0 0.0 0.00 0.00 0.00 60 1016.1
20260901231300 90 221 0.0 0.0 0.00 0.00 0.00 59 1015.9
20260901230756 91 221 0.0 0.0 0.00 0.00 0.00 56 1015.8
20260901230254 91 221 0.0 0.0 0.00 0.00 0.00 56 1016.0
20260901225750 91 221 0.0 0.0 0.00 0.00 0.00 57 1015.9
20260901225244 91 221 0.0 0.0 0.00 0.00 0.00 55 1016.1
20260901224741 92 222 0.0 0.0 0.00 0.00 0.00 53 1015.9
20260901224236 92 221 0.0 0.0 0.00 0.00 0.00 50 1016.0
20260901223732 92 221 0.0 0.0 0.00 0.00 0.00 49 1016.2
20260901223227 93 220 0.0 0.0 0.00 0.00 0.00 48 1015.9
20260901222723 93 221 0.0 0.0 0.00 0.00 0.00 48 1016.0
20260901222219 93 221 0.0 0.0 0.00 0.00 0.00 47 1015.8
20260901221715 93 221 0.0 0.0 0.00 0.00 0.00 46 1016.0
20260901221211 93 220 0.0 0.0 0.00 0.00 0.00 46 1015.9
20260901220709 93 220 0.0 0.0 0.00 0.00 0.00 48 1016.1
20260901220209 94 221 0.0 0.0 0.00 0.00 0.00 49 1015.9
20260901215708 94 221 0.0 0.0 0.00 0.00 0.00 48 1016.1
20260901215202 95 212 0.0 0.0 0.00 0.00 0.00 46 1016.0
20260901214700 95 213 0.0 0.0 0.00 0.00 0.00 47 1015.9
20260901214154 95 222 0.0 0.0 0.00 0.00 0.00 48 1016.1
20260901213649 96 223 0.0 0.0 0.00 0.00 0.00 45 1016.1
20260901213144 96 233 0.0 0.0 0.00 0.00 0.00 42 1016.1
20260901212643 95 216 0.0 0.0 0.00 0.00 0.00 46 1016.1
20260901212140 94 220 0.0 0.0 0.00 0.00 0.00 45 1016.0
20260901211634 95 225 0.0 0.0 0.00 0.00 0.00 46 1016.2
20260901211131 94 221 0.0 0.0 0.00 0.00 0.00 46 1016.1
20260901210626 93 232 0.0 0.0 0.00 0.00 0.00 47 1016.4
20260901210122 92 205 0.0 0.0 0.00 0.00 0.00 48 1016.2
20260901205617 92 204 0.0 0.0 0.00 0.00 0.00 50 1016.2
20260901205111 92 204 0.0 0.0 0.00 0.00 0.00 51 1016.2
20260901204607 92 204 0.0 0.0 0.00 0.00 0.00 51 1016.3
20260901204102 92 204 0.0 0.0 0.00 0.00 0.00 50 1016.5
20260901203602 92 205 0.0 0.0 0.00 0.00 0.00 51 1016.3
20260901203057 92 204 0.0 0.0 0.00 0.00 0.00 50 1016.5
20260901202556 91 204 0.0 0.0 0.00 0.00 0.00 52 1016.5
20260901202053 91 204 0.0 0.0 0.00 0.00 0.00 52 1016.7
20260901201548 91 196 0.0 0.0 0.00 0.00 0.00 51 1016.7
20260901201047 92 199 0.0 0.0 0.00 0.00 0.00 51 1016.7
20260901200547 92 227 0.0 0.0 0.00 0.00 0.00 52 1016.8
20260901200042 91 204 0.0 0.0 0.00 0.00 0.00 54 1016.9
20260901195539 91 203 0.0 0.0 0.00 0.00 0.00 54 1016.8
20260901195034 93 213 0.0 0.0 0.00 0.00 0.00 55 1016.8
20260901194529 93 234 1.0 1.0 0.00 0.00 0.00 51 1017.0
20260901194025 93 214 0.0 0.0 0.00 0.00 0.00 52 1017.1
20260901193524 93 185 0.0 0.0 0.00 0.00 0.00 54 1017.0
20260901193020 93 216 0.0 0.0 0.00 0.00 0.00 51 1017.2
20260901192514 93 245 0.0 0.0 0.00 0.00 0.00 50 1017.4
20260901192011 93 220 0.0 0.0 0.00 0.00 0.00 51 1017.2
20260901191506 93 218 0.0 0.0 0.00 0.00 0.00 49 1017.2
20260901191002 93 273 0.0 0.0 0.00 0.00 0.00 51 1017.2
20260901190457 92 221 0.0 0.0 0.00 0.00 0.00 54 1017.1
20260901185955 92 248 0.0 0.0 0.00 0.00 0.00 52 1017.5
20260901185449 92 217 0.0 0.0 0.00 0.00 0.00 56 1017.3
20260901184949 91 214 0.0 0.0 0.00 0.00 0.00 55 1017.3
20260901184444 91 279 0.0 0.0 0.00 0.00 0.00 53 1017.5
20260901183939 91 223 0.0 0.0 0.00 0.00 0.00 54 1017.4
20260901183439 91 265 0.0 0.0 0.00 0.00 0.00 53 1017.8
20260901182935 91 211 0.0 0.0 0.00 0.00 0.00 54 1017.8
20260901182431 91 226 0.0 1.0 0.00 0.00 0.00 55 1017.5
20260901181925 90 209 0.0 0.0 0.00 0.00 0.00 54 1017.8
20260901181420 90 207 0.0 0.0 0.00 0.00 0.00 56 1017.8
20260901180919 90 210 0.0 0.0 0.00 0.00 0.00 56 1017.9
20260901180418 90 201 0.0 0.0 0.00 0.00 0.00 60 1018.2
20260901175917 90 213 0.0 0.0 0.00 0.00 0.00 62 1018.1
20260901175412 90 213 0.0 0.0 0.00 0.00 0.00 58 1017.9
20260901174907 90 218 0.0 0.0 0.00 0.00 0.00 57 1018.0
20260901174403 90 219 0.0 0.0 0.00 0.00 0.00 56 1018.5
20260901173858 90 249 0.0 0.0 0.00 0.00 0.00 55 1018.4
20260901173353 90 222 0.0 0.0 0.00 0.00 0.00 56 1018.2
20260901172849 90 238 0.0 0.0 0.00 0.00 0.00 54 1018.4
20260901172349 90 218 0.0 0.0 0.00 0.00 0.00 59 1018.4
20260901171847 90 209 0.0 0.0 0.00 0.00 0.00 61 1018.7
20260901171346 90 211 0.0 0.0 0.00 0.00 0.00 61 1018.2
20260901170845 90 216 0.0 0.0 0.00 0.00 0.00 60 1018.6
20260901170340 90 233 0.0 0.0 0.00 0.00 0.00 61 1018.6
20260901165834 90 207 0.0 0.0 0.00 0.00 0.00 64 1018.8
20260901165328 89 215 0.0 0.0 0.00 0.00 0.00 64 1018.8
20260901164825 89 224 0.0 0.0 0.00 0.00 0.00 62 1018.8
20260901164320 89 219 0.0 0.0 0.00 0.00 0.00 62 1018.9
20260901163814 89 229 0.0 0.0 0.00 0.00 0.00 63 1018.9
20260901163309 89 217 0.0 0.0 0.00 0.00 0.00 63 1018.7
20260901162804 89 229 0.0 0.0 0.00 0.00 0.00 64 1018.8
20260901162306 89 218 0.0 0.0 0.00 0.00 0.00 68 1019.0
20260901161802 88 205 0.0 0.0 0.00 0.00 0.00 66 1019.0
20260901161256 88 245 0.0 0.0 0.00 0.00 0.00 68 1019.1
20260901160752 88 255 1.0 1.0 0.00 0.00 0.00 68 1018.9
20260901160248 88 207 0.0 0.0 0.00 0.00 0.00 70 1019.1
20260901155747 88 219 0.0 0.0 0.00 0.00 0.00 71 1019.2
20260901155242 87 217 0.0 0.0 0.00 0.00 0.00 69 1019.0
20260901154738 87 209 0.0 0.0 0.00 0.00 0.00 73 1018.9
20260901154232 87 207 0.0 0.0 0.00 0.00 0.00 72 1019.0
20260901153728 87 220 0.0 0.0 0.00 0.00 0.00 72 1019.1
20260901153227 86 216 0.0 0.0 0.00 0.00 0.00 72 1019.0
20260901152721 86 213 0.0 0.0 0.00 0.00 0.00 74 1019.2
20260901152220 86 216 0.0 0.0 0.00 0.00 0.00 73 1019.3
20260901151715 86 229 1.0 2.0 0.00 0.00 0.00 73 1019.1
20260901151215 86 228 0.0 0.0 0.00 0.00 0.00 74 1019.2
20260901150709 86 221 0.0 0.0 0.00 0.00 0.00 75 1019.4
20260901150207 85 215 0.0 0.0 0.00 0.00 0.00 75 1019.2
20260901145705 85 213 0.0 0.0 0.00 0.00 0.00 75 1019.1
20260901145200 85 218 0.0 0.0 0.00 0.00 0.00 76 1019.1
20260901144655 85 219 0.0 0.0 0.00 0.00 0.00 76 1019.2
20260901144150 84 236 0.0 0.0 0.00 0.00 0.00 76 1019.2
20260901143645 84 226 0.0 0.0 0.00 0.00 0.00 79 1019.2
20260901143142 83 224 0.0 0.0 0.00 0.00 0.00 82 1019.0
20260901142638 82 225 0.0 0.0 0.00 0.00 0.00 83 1019.4
20260901142137 81 225 0.0 0.0 0.00 0.00 0.00 85 1019.3
20260901141632 81 225 0.0 0.0 0.00 0.00 0.00 86 1019.2
20260901141131 81 225 0.0 0.0 0.00 0.00 0.00 87 1019.3
20260901140630 80 225 0.0 0.0 0.00 0.00 0.00 86 1019.3
20260901140129 80 224 0.0 0.0 0.00 0.00 0.00 87 1019.2
20260901135624 79 226 0.0 0.0 0.00 0.00 0.00 88 1019.2
20260901135119 79 228 0.0 0.0 0.00 0.00 0.00 90 1019.4
20260901134615 78 225 0.0 0.0 0.00 0.00 0.00 92 1019.4
20260901134110 78 225 0.0 0.0 0.00 0.00 0.00 92 1019.1
20260901133609 78 225 0.0 0.0 0.00 0.00 0.00 93 1019.4
20260901133107 77 225 0.0 0.0 0.00 0.00 0.00 93 1019.3
20260901132603 77 225 0.0 0.0 0.00 0.00 0.00 94 1019.2
20260901132057 76 225 0.0 0.0 0.00 0.00 0.00 94 1019.0
20260901131556 76 225 0.0 0.0 0.00 0.00 0.00 95 1019.3
20260901131051 75 226 0.0 0.0 0.00 0.00 0.00 95 1019.1
20260901130546 75 225 0.0 0.0 0.00 0.00 0.00 97 1019.1
20260901130044 75 225 0.0 0.0 0.00 0.00 0.00 97 1019.2
20260901125543 74 226 0.0 0.0 0.00 0.00 0.00 97 1018.9
20260901125038 73 225 0.0 0.0 0.00 0.00 0.00 98 1018.9
20260901124538 73 225 0.0 0.0 0.00 0.00 0.00 98 1018.9
20260901124033 73 226 0.0 0.0 0.00 0.00 0.00 98 1018.9
20260901123528 73 226 0.0 0.0 0.00 0.00 0.00 97 1018.7
20260901123028 72 226 0.0 0.0 0.00 0.00 0.00 97 1018.9
20260901122526 72 226 0.0 0.0 0.00 0.00 0.00 97 1018.7
20260901122025 72 226 0.0 0.0 0.00 0.00 0.00 97 1018.8
20260901121521 72 227 0.0 0.0 0.00 0.00 0.00 97 1018.5
20260901121016 72 227 0.0 0.0 0.00 0.00 0.00 97 1018.6
20260901120515 72 227 0.0 0.0 0.00 0.00 0.00 97 1018.5
20260901120011 72 228 0.0 0.0 0.00 0.00 0.00 98 1018.6
20260901115506 71 228 0.0 0.0 0.00 0.00 0.00 97 1018.5
20260901115003 72 228 0.0 0.0 0.00 0.00 0.00 97 1018.4
20260901114459 71 232 0.0 0.0 0.00 0.00 0.00 97 1018.6
20260901113956 71 229 0.0 0.0 0.00 0.00 0.00 97 1018.5
20260901113456 71 229 0.0 0.0 0.00 0.00 0.00 97 1018.1
20260901112951 71 229 0.0 0.0 0.00 0.00 0.00 97 1018.1
20260901112446 71 229 0.0 0.0 0.00 0.00 0.00 97 1018.1
20260901111941 71 229 0.0 0.0 0.00 0.00 0.00 97 1017.9
20260901111440 71 229 0.0 0.0 0.00 0.00 0.00 97 1017.9
20260901110938 71 229 0.0 0.0 0.00 0.00 0.00 97 1017.7
20260901110434 71 229 0.0 0.0 0.00 0.00 0.00 97 1017.9
20260901105930 71 229 0.0 0.0 0.00 0.00 0.00 97 1017.8
20260901105425 72 229 0.0 0.0 0.00 0.00 0.00 97 1017.7
20260901104916 72 230 0.0 0.0 0.00 0.00 0.00 97 1017.7
20260901104411 72 228 0.0 0.0 0.00 0.00 0.00 97 1017.7
20260901103906 71 229 0.0 0.0 0.00 0.00 0.00 96 1017.7
20260901103406 72 228 0.0 0.0 0.00 0.00 0.00 96 1017.5
20260901102901 71 229 0.0 0.0 0.00 0.00 0.00 97 1017.7
20260901102355 72 227 0.0 0.0 0.00 0.00 0.00 96 1017.7
20260901101851 72 228 0.0 0.0 0.00 0.00 0.00 97 1017.5
20260901101351 71 229 0.0 0.0 0.00 0.00 0.00 96 1017.4
20260901100850 72 229 0.0 0.0 0.00 0.00 0.00 96 1017.4
20260901100345 71 229 0.0 0.0 0.00 0.00 0.00 97 1017.7
20260901095845 72 229 0.0 0.0 0.00 0.00 0.00 96 1017.7
20260901095342 72 229 0.0 0.0 0.00 0.00 0.00 96 1017.3
20260901094836 72 229 0.0 0.0 0.00 0.00 0.00 96 1017.2
20260901094331 72 229 0.0 0.0 0.00 0.00 0.00 96 1017.5
20260901093826 72 229 0.0 0.0 0.00 0.00 0.00 96 1017.4
20260901093325 72 229 0.0 0.0 0.00 0.00 0.00 96 1017.4
20260901092821 72 229 0.0 0.0 0.00 0.00 0.00 96 1017.4
20260901092317 72 229 0.0 0.0 0.00 0.00 0.00 96 1017.1
20260901091813 72 229 0.0 0.0 0.00 0.00 0.00 96 1017.2
20260901091312 72 229 0.0 0.0 0.00 0.00 0.00 96 1017.2
20260901090808 72 229 0.0 0.0 0.00 0.00 0.00 96 1017.2
20260901090303 72 230 0.0 0.0 0.00 0.00 0.00 96 1017.2
20260901085759 72 229 0.0 0.0 0.00 0.00 0.00 96 1017.1
20260901085253 72 229 0.0 0.0 0.00 0.00 0.00 96 1017.1
20260901084750 72 231 0.0 0.0 0.00 0.00 0.00 96 1017.1
20260901084246 72 229 0.0 0.0 0.00 0.00 0.00 96 1017.1
20260901083746 72 229 0.0 0.0 0.00 0.00 0.00 96 1017.3
20260901083245 72 229 0.0 0.0 0.00 0.00 0.00 96 1017.3
20260901082744 72 229 0.0 0.0 0.00 0.00 0.00 95 1016.9
20260901082239 72 229 0.0 0.0 0.00 0.00 0.00 95 1017.0
20260901081735 72 229 0.0 0.0 0.00 0.00 0.00 95 1017.0
20260901081234 72 229 0.0 0.0 0.00 0.00 0.00 95 1016.9
20260901080730 72 229 0.0 0.0 0.00 0.00 0.00 95 1017.0
20260901080228 73 231 0.0 0.0 0.00 0.00 0.00 95 1016.8
20260901075723 73 226 0.0 0.0 0.00 0.00 0.00 95 1016.8
20260901075218 73 226 0.0 0.0 0.00 0.00 0.00 95 1017.0
20260901074712 73 226 0.0 0.0 0.00 0.00 0.00 95 1016.8
20260901074208 73 226 0.0 0.0 0.00 0.00 0.00 94 1016.8
20260901073704 73 226 0.0 0.0 0.00 0.00 0.00 94 1016.7
20260901073159 73 226 0.0 0.0 0.00 0.00 0.00 94 1016.8
20260901072654 73 226 0.0 0.0 0.00 0.00 0.00 94 1016.7
20260901072149 73 226 0.0 0.0 0.00 0.00 0.00 94 1017.1
20260901071648 73 226 0.0 0.0 0.00 0.00 0.00 94 1016.9
20260901071143 73 226 0.0 0.0 0.00 0.00 0.00 94 1016.9
20260901070637 73 226 0.0 0.0 0.00 0.00 0.00 95 1016.8
20260901070133 73 225 0.0 0.0 0.00 0.00 0.00 94 1016.8
20260901065632 73 225 0.0 0.0 0.00 0.00 0.00 94 1017.4
20260901065127 73 225 0.0 0.0 0.00 0.00 0.00 94 1016.8
20260901064624 74 227 0.0 0.0 0.00 0.00 0.00 94 1017.0
20260901064120 74 226 0.0 0.0 0.00 0.00 0.00 94 1017.2
20260901063616 74 227 0.0 0.0 0.00 0.00 0.00 94 1017.2
20260901063112 74 227 0.0 0.0 0.00 0.00 0.00 93 1017.1
20260901062608 73 229 0.0 0.0 0.00 0.00 0.00 93 1017.2
20260901062103 74 235 0.0 0.0 0.00 0.00 0.00 94 1017.3
20260901061600 73 229 0.0 0.0 0.00 0.00 0.00 94 1017.3
20260901061054 73 229 0.0 0.0 0.00 0.00 0.00 94 1017.4
20260901060549 73 229 0.0 0.0 0.00 0.00 0.00 94 1017.3
20260901060044 73 229 0.0 0.0 0.00 0.00 0.00 95 1017.1
20260901055539 74 229 0.0 0.0 0.00 0.00 0.00 95 1017.4
20260901055036 74 229 0.0 0.0 0.00 0.00 0.00 95 1017.2
20260901054533 74 228 0.0 0.0 0.00 0.00 0.00 94 1017.4
20260901054029 74 228 0.0 0.0 0.00 0.00 0.00 94 1017.3
20260901053525 74 228 0.0 0.0 0.00 0.00 0.00 94 1017.3
20260901053020 75 228 0.0 0.0 0.00 0.00 0.00 94 1017.2
20260901052515 75 228 0.0 0.0 0.00 0.00 0.00 94 1017.3
20260901052014 75 228 0.0 0.0 0.00 0.00 0.00 93 1017.1
20260901051510 75 228 0.0 0.0 0.00 0.00 0.00 93 1017.1
20260901051008 75 228 0.0 0.0 0.00 0.00 0.00 93 1017.2
20260901050504 75 228 0.0 0.0 0.00 0.00 0.00 93 1017.2
20260901045958 75 228 0.0 0.0 0.00 0.00 0.00 93 1016.9
20260901045454 75 228 0.0 0.0 0.00 0.00 0.00 92 1017.3
20260901044948 75 229 0.0 0.0 0.00 0.00 0.00 93 1017.2
20260901044444 75 228 0.0 0.0 0.00 0.00 0.00 93 1017.3